QPF
0.00 0.00 0.00 0.00 0.00 0.00 0.00 0.00 0.00 0.00 0.00 0.00 0.00 0.00 0.00 0.00 0.00 0.00 0.00 0.00 0.00 0.00 0.00 0.00 0.00 0.00 0.00 0.00 0.00 0.00 0.00 0.00 0.00 0.00 0.00 0.00 0.00 0.00 0.00 0.00 0.00 0.00 0.00 0.00
0.00 0.00 0.00 0.00 0.00 0.00 0.00 0.00 0.00 0.00 0.00 0.00 0.00 0.00 0.00 0.00 0.00 0.00 0.00 0.00 0.00 0.00 0.00 0.00 0.00 0.00 0.00 0.00 0.00 0.00 0.00 0.00 0.00 0.00 0.00 0.00 0.00 0.00 0.00 0.00 0.00 0.00 0.00 0.00
0.00 0.00 0.00 0.00 0.00 0.00 0.00 0.00 0.00 0.00 0.00 0.00 0.00 0.00 0.00 0.00 0.00 0.00 0.00 0.00 0.00 0.00 0.00 0.00 0.00 0.00 0.00 0.00 0.00 0.00 0.00 0.00 0.00 0.00 0.00 0.00 0.00 0.00 0.00 0.00 0.00 0.00 0.00 0.00
0.00 0.00 0.00 0.00 0.00 0.00 0.00 0.00 0.00 0.00 0.00 0.00 0.00 0.00 0.00 0.00 0.00 0.00 0.00 0.00 0.00 0.00 0.00 0.00 0.00 0.00 0.00 0.00 0.00 0.00 0.00 0.00 0.00 0.00 0.00 0.00 0.00 0.00 0.00 0.00 0.00 0.00 0.00 0.00
0.00 0.00 0.00 0.00 0.00 0.00 0.00 0.00 0.00 0.00 0.00 0.00 0.00 0.00 0.00 0.00 0.00 0.00 0.00 0.00 0.00 0.00 0.00 0.00 0.00 0.00 0.00 0.00 0.00 0.00 0.00 0.00 0.00 0.00 0.00 0.00 0.00 0.00 0.00 0.00 0.00 0.00 0.00 0.00
0.00 0.00 0.00 0.00 0.00 0.00 0.00 0.00 0.00 0.00 0.00 0.00 0.00 0.00 0.00 0.00 0.00 0.00 0.00 0.00 0.00 0.00 0.00 0.00 0.00 0.00 0.00 0.00 0.00 0.00 0.00 0.00 0.00 0.00 0.00 0.00 0.00 0.00 0.00 0.00 0.00 0.00 0.00 0.00
0.00 0.00 0.00 0.00 0.00 0.00 0.00 0.00 0.00 0.00 0.00 0.00 0.00 0.00 0.00 0.00 0.00 0.00 0.00 0.00 0.00 0.00 0.00 0.00 0.00 0.00 0.00 0.00 0.00 0.00 0.00 0.00 0.00 0.00 0.00 0.00 0.00 0.00 0.00 0.00 0.00 0.00 0.00 0.00
0.00 0.00 0.00 0.00 0.00 0.00 0.00 0.00 0.00 0.00 0.00 0.00 0.00 0.00 0.00 0.00 0.00 0.00 0.00 0.00 0.00 0.00 0.00 0.00 0.00 0.00 0.00 0.00 0.00 0.00 0.00 0.00 0.00 0.00 0.00 0.00 0.00 0.00 0.00 0.00 0.00 0.00 0.00 0.00
0.00 0.00 0.00 0.00 0.00 0.00 0.00 0.00 0.00 0.00 0.00 0.00 0.00 0.00 0.00 0.00 0.00 0.00 0.00 0.00 0.00 0.00 0.00 0.00 0.00 0.00 0.00 0.00 0.00 0.00 0.00 0.00 0.00 0.00 0.00 0.00 0.00 0.00 0.00 0.00 0.00 0.00 0.00 0.00
0.00 0.00 0.00 0.00 0.00 0.00 0.00 0.00 0.00 0.00 0.00 0.00 0.00 0.00 0.00 0.00 0.00 0.00 0.00 0.00 0.00 0.00 0.00 0.00 0.00 0.00 0.00 0.00 0.00 0.00 0.00 0.00 0.00 0.00 0.00 0.00 0.00 0.00 0.00 0.00 0.00 0.00 0.00 0.00
0.00 0.00 0.00 0.00 0.00 0.00 0.00 0.00 0.00 0.00 0.00 0.00 0.00 0.00 0.00 0.00 0.00 0.00 0.00 0.00 0.00 0.00 0.00 0.00 0.00 0.00 0.00 0.00 0.00 0.00 0.00 0.00 0.00 0.00 0.00 0.00 0.00 0.00 0.00 0.00 0.00 0.00 0.00 0.00
0.00 0.00 0.00 0.00 0.00 0.00 0.00 0.00 0.00 0.00 0.00 0.00 0.00 0.00 0.00 0.00 0.00 0.00 0.00 0.00 0.00 0.00 0.00 0.00 0.00 0.00 0.00 0.00 0.00 0.00 0.00 0.00 0.00 0.00 0.00 0.00 0.00 0.00 0.00 0.00 0.00 0.00 0.00 0.00
0.00 0.00 0.00 0.00 0.00 0.00 0.00 0.00 0.00 0.00 0.00 0.00 0.00 0.00 0.00 0.00 0.00 0.00 0.00 0.00 0.00 0.00 0.00 0.00 0.00 0.00 0.00 0.00 0.00 0.00 0.00 0.00 0.00 0.00 0.00 0.00 0.00 0.00 0.00 0.00 0.00 0.00 0.00 0.00
0.00 0.00 0.00 0.00 0.00 0.00 0.00 0.00 0.00 0.00 0.00 0.00 0.00 0.00 0.00 0.00 0.00 0.00 0.00 0.00 0.00 0.00 0.00 0.00 0.00 0.00 0.00 0.00 0.00 0.00 0.00 0.00 0.00 0.00 0.00 0.00 0.00 0.00 0.00 0.00 0.00 0.00 0.00 0.00
0.00 0.00 0.00 0.00 0.00 0.00 0.00 0.00 0.00 0.00 0.00 0.00 0.00 0.00 0.00 0.00 0.00 0.00 0.00 0.00 0.00 0.00 0.00 0.00 0.00 0.00 0.00 0.00 0.00 0.00 0.00 0.00 0.00 0.00 0.00 0.00 0.00 0.00 0.00 0.00 0.00 0.00 0.00 0.00
0.00 0.00 0.00 0.00 0.00 0.00 0.00 0.00 0.00 0.00 0.00 0.00 0.00 0.00 0.00 0.00 0.00 0.00 0.00 0.00 0.00 0.00 0.00 0.00 0.00 0.00 0.00 0.00 0.00 0.00 0.00 0.00 0.00 0.00 0.00 0.00 0.00 0.00 0.00 0.00 0.00 0.00 0.00 0.00
0.00 0.00 0.00 0.00 0.00 0.00 0.00 0.00 0.00 0.00 0.00 0.00 0.00 0.00 0.00 0.00 0.00 0.00 0.00 0.00 0.00 0.00 0.00 0.00 0.00 0.00 0.00 0.00 0.00 0.00 0.00 0.00 0.00 0.00 0.00 0.00 0.00 0.00 0.00 0.00 0.00 0.00 0.00 0.00
0.00 0.00 0.00 0.00 0.00 0.00 0.00 0.00 0.00 0.00 0.00 0.00 0.00 0.00 0.00 0.00 0.00 0.00 0.00 0.00 0.00 0.00 0.00 0.00 0.00 0.00 0.00 0.00 0.00 0.00 0.00 0.00 0.00 0.00 0.00 0.00 0.00 0.00 0.00 0.00 0.00 0.00 0.00 0.00
0.00 0.00 0.00 0.00 0.00 0.00 0.00 0.00 0.00 0.00 0.00 0.00 0.00 0.00 0.00 0.00 0.00 0.00 0.00 0.00 0.00 0.00 0.00 0.00 0.00 0.00 0.00 0.00 0.00 0.00 0.00 0.00 0.00 0.00 0.00 0.00 0.00 0.00 0.00 0.00 0.00 0.00 0.00 0.00
0.00 0.00 0.00 0.00 0.00 0.00 0.00 0.00 0.00 0.00 0.00 0.00 0.00 0.00 0.00 0.00 0.00 0.00 0.00 0.00 0.00 0.00 0.00 0.00 0.00 0.00 0.00 0.00 0.00 0.00 0.00 0.00 0.00 0.00 0.00 0.00 0.00 0.00 0.00 0.00 0.00 0.00 0.00 0.00
0.00 0.00 0.00 0.00 0.00 0.00 0.00 0.00 0.00 0.00 0.00 0.00 0.00 0.00 0.00 0.00 0.00 0.00 0.00 0.00 0.00 0.00 0.00 0.00 0.00 0.00 0.00 0.00 0.00 0.00 0.00 0.00 0.00 0.00 0.00 0.00 0.00 0.00 0.00 0.00 0.00 0.00 0.00 0.00
0.00 0.00 0.00 0.00 0.00 0.00 0.00 0.00 0.00 0.00 0.00 0.00 0.00 0.00 0.00 0.00 0.00 0.00 0.00 0.00 0.00 0.00 0.00 0.00 0.00 0.00 0.00 0.00 0.00 0.00 0.00 0.00 0.00 0.00 0.00 0.00 0.00 0.00 0.00 0.00 0.00 0.00 0.00 0.00
0.00 0.00 0.00 0.00 0.00 0.00 0.00 0.00 0.00 0.00 0.00 0.00 0.00 0.00 0.00 0.00 0.00 0.00 0.00 0.00 0.00 0.00 0.00 0.00 0.00 0.00 0.00 0.00 0.00 0.00 0.00 0.00 0.00 0.00 0.00 0.00 0.00 0.00 0.00 0.00 0.00 0.00 0.00 0.00
0.00 0.00 0.00 0.00 0.00 0.00 0.00 0.00 0.00 0.00 0.00 0.00 0.00 0.00 0.00 0.00 0.00 0.00 0.00 0.00 0.00 0.00 0.00 0.00 0.00 0.00 0.00 0.00 0.00 0.00 0.00 0.00 0.00 0.00 0.00 0.00 0.00 0.00 0.00 0.00 0.00 0.00 0.00 0.00
0.00 0.00 0.00 0.00 0.00 0.00 0.00 0.00 0.00 0.00 0.00 0.00 0.00 0.00 0.00 0.00 0.00 0.00 0.00 0.00 0.00 0.00 0.00 0.00 0.00 0.00 0.00 0.00 0.00 0.00 0.00 0.00 0.00 0.00 0.00 0.00 0.00 0.00 0.00 0.00 0.00 0.00 0.00 0.00
0.00 0.00 0.00 0.00 0.00 0.00 0.00 0.00 0.00 0.00 0.00 0.00 0.00 0.00 0.00 0.00 0.00 0.00 0.00 0.00 0.00 0.00 0.00 0.00 0.00 0.00 0.00 0.00 0.00 0.00 0.00 0.00 0.00 0.00 0.00 0.00 0.00 0.00 0.00 0.00 0.00 0.00 0.00 0.00
MSLP
1019.29 1019.79 1019.89 1020.33 1020.32 1020.57 1020.84 1021.15 1021.27 1021.06 1020.80 1020.97 1021.01 1020.87 1020.06 1019.98 1020.09 1020.07 1020.05 1020.03 1020.19 1020.63 1021.25 1021.79 1022.24 1022.52 1022.64 1022.76 1022.77 1022.89 1022.88 1022.83 1022.51 1022.29 1022.13 1022.14 1022.40 1022.92 1023.37 1023.53 1023.61 1023.51 1023.46 1023.05
1020.09 1020.06 1020.31 1020.33 1020.73 1020.92 1021.16 1021.38 1021.61 1021.47 1021.38 1021.64 1021.58 1021.02 1019.96 1019.67 1019.26 1019.00 1019.28 1019.63 1019.91 1020.69 1021.26 1021.87 1022.56 1022.98 1023.16 1023.27 1023.24 1023.18 1023.17 1023.05 1022.85 1022.62 1022.47 1022.42 1022.65 1023.34 1023.72 1024.06 1024.14 1024.27 1024.03 1023.79
1020.16 1020.24 1020.29 1020.52 1021.29 1021.30 1021.52 1021.72 1021.89 1021.92 1022.02 1022.17 1022.11 1021.12 1020.02 1019.08 1018.72 1018.56 1018.52 1018.98 1019.47 1020.18 1021.03 1021.78 1022.45 1023.18 1023.64 1023.87 1023.80 1023.64 1023.54 1023.40 1023.20 1022.94 1022.67 1022.82 1023.12 1023.57 1024.03 1024.43 1024.70 1024.89 1024.66 1024.30
1020.56 1020.50 1020.80 1020.91 1021.36 1021.36 1021.81 1021.75 1022.08 1022.40 1022.83 1023.14 1022.89 1022.32 1020.48 1019.35 1018.82 1018.69 1018.48 1018.87 1019.45 1020.01 1020.86 1021.91 1022.64 1023.31 1023.94 1024.31 1024.23 1024.08 1023.92 1023.72 1023.56 1023.29 1023.16 1023.26 1023.59 1024.08 1024.78 1025.03 1025.19 1025.34 1025.23 1024.96
1020.49 1020.69 1020.90 1021.20 1021.05 1021.14 1021.67 1021.91 1022.59 1022.99 1023.55 1023.74 1023.81 1023.77 1020.79 1019.84 1019.12 1019.01 1019.05 1019.39 1019.80 1020.26 1020.93 1021.87 1022.82 1023.38 1024.06 1024.48 1024.55 1024.49 1024.40 1024.31 1024.07 1023.81 1023.75 1023.84 1023.99 1024.60 1025.18 1025.52 1025.72 1025.91 1025.78 1025.85
1020.73 1020.61 1020.63 1020.55 1020.73 1020.88 1021.78 1022.48 1023.40 1024.01 1024.41 1024.68 1023.81 1023.73 1021.76 1020.29 1019.59 1019.52 1019.71 1020.11 1020.66 1021.20 1021.75 1022.60 1023.23 1023.87 1024.31 1024.56 1024.72 1024.74 1024.80 1024.94 1024.71 1024.51 1024.45 1024.55 1024.71 1025.12 1025.50 1025.91 1026.04 1026.17 1026.22 1026.18
1021.00 1020.91 1020.55 1020.33 1020.85 1021.32 1021.66 1022.66 1024.28 1025.29 1025.63 1025.03 1024.52 1024.25 1021.37 1019.87 1019.76 1020.00 1020.18 1020.75 1021.40 1021.96 1022.40 1022.98 1023.50 1023.94 1024.30 1024.67 1024.87 1024.96 1025.13 1025.32 1025.33 1025.22 1025.30 1025.35 1025.46 1025.59 1026.01 1026.26 1026.42 1026.47 1026.62 1026.65
1020.70 1021.24 1020.39 1020.13 1020.24 1020.72 1021.75 1022.40 1023.56 1024.92 1025.86 1025.47 1024.71 1023.23 1020.53 1019.90 1020.04 1020.26 1020.41 1021.03 1021.66 1022.30 1022.77 1023.22 1023.58 1023.91 1024.22 1024.44 1024.77 1025.05 1025.34 1025.68 1025.76 1025.89 1025.98 1025.97 1026.06 1026.24 1026.39 1026.57 1026.71 1026.86 1026.99 1027.12
1020.08 1020.38 1020.26 1020.16 1020.06 1020.36 1021.81 1022.38 1022.95 1024.52 1026.30 1025.82 1023.93 1022.40 1020.36 1019.98 1020.29 1020.76 1021.29 1021.50 1021.94 1022.40 1022.82 1023.24 1023.63 1023.95 1024.22 1024.50 1024.87 1025.18 1025.58 1025.96 1026.20 1026.31 1026.41 1026.54 1026.56 1026.58 1026.80 1026.96 1027.17 1027.17 1027.32 1027.29
1018.96 1020.24 1020.52 1020.35 1020.15 1020.48 1020.54 1021.41 1022.83 1024.26 1025.54 1025.38 1023.77 1022.68 1020.76 1020.42 1020.56 1021.02 1021.48 1021.60 1022.03 1022.39 1022.70 1022.94 1023.18 1023.51 1023.98 1024.45 1024.93 1025.33 1025.65 1025.98 1026.29 1026.50 1026.63 1026.75 1026.88 1027.02 1027.20 1027.30 1027.35 1027.42 1027.58 1027.77
1018.63 1019.16 1020.93 1020.54 1020.26 1020.30 1020.93 1021.23 1022.08 1023.04 1024.05 1024.23 1023.80 1021.96 1020.69 1020.46 1020.44 1020.66 1021.10 1021.53 1021.68 1022.02 1022.24 1022.47 1022.83 1023.27 1023.67 1024.12 1024.55 1024.90 1025.31 1025.64 1026.03 1026.33 1026.60 1026.89 1027.09 1027.27 1027.43 1027.44 1027.44 1027.54 1027.85 1028.10
1018.11 1019.19 1020.38 1020.48 1020.35 1020.19 1020.16 1020.59 1021.33 1022.38 1023.59 1023.67 1023.25 1021.52 1020.43 1020.32 1020.28 1020.49 1020.93 1021.30 1021.47 1021.53 1021.74 1022.16 1022.55 1023.05 1023.61 1023.86 1024.18 1024.52 1024.93 1025.30 1025.70 1026.14 1026.57 1026.97 1027.20 1027.35 1027.48 1027.58 1027.68 1027.87 1028.22 1028.59
1017.74 1018.89 1020.42 1021.00 1020.94 1020.40 1020.23 1020.37 1020.73 1021.44 1022.06 1022.47 1022.54 1021.08 1020.10 1019.93 1020.11 1020.42 1020.81 1020.91 1021.04 1021.12 1021.35 1021.77 1022.30 1022.73 1023.06 1023.46 1023.80 1024.14 1024.53 1025.03 1025.58 1026.07 1026.50 1026.89 1027.19 1027.43 1027.65 1027.96 1028.20 1028.41 1028.64 1028.80
1017.26 1018.24 1018.79 1019.17 1019.22 1019.30 1020.03 1019.90 1019.97 1020.56 1020.91 1021.25 1020.50 1020.37 1020.04 1019.98 1020.16 1020.36 1020.48 1020.57 1020.54 1020.59 1020.87 1021.35 1021.72 1021.90 1022.25 1022.63 1023.15 1023.82 1024.46 1025.01 1025.57 1026.10 1026.55 1026.80 1027.07 1027.35 1027.76 1028.06 1028.31 1028.49 1028.72 1028.97
1017.38 1018.25 1018.93 1019.23 1019.28 1019.30 1019.19 1019.24 1019.41 1019.42 1019.70 1019.90 1019.49 1019.39 1019.21 1019.25 1019.25 1019.37 1019.75 1019.90 1020.01 1020.17 1020.32 1020.65 1021.15 1021.37 1021.71 1021.98 1022.52 1023.11 1023.82 1024.49 1025.13 1025.81 1026.17 1026.53 1027.07 1027.55 1027.77 1027.96 1028.27 1028.63 1028.96 1029.26
1017.39 1018.18 1018.94 1019.95 1020.05 1019.88 1019.62 1019.04 1018.81 1018.82 1019.00 1018.80 1018.79 1018.21 1018.07 1017.68 1018.51 1018.74 1018.81 1019.07 1019.42 1019.40 1019.87 1019.97 1020.43 1021.00 1021.15 1021.57 1022.12 1022.65 1023.33 1024.00 1024.77 1025.45 1026.09 1026.74 1027.40 1027.75 1027.92 1028.12 1028.48 1028.93 1029.30 1029.54
1017.44 1018.41 1019.59 1020.81 1021.00 1020.53 1019.73 1018.27 1018.12 1017.98 1017.58 1017.27 1017.17 1016.27 1017.60 1017.67 1017.55 1017.69 1018.02 1018.11 1017.87 1018.27 1018.55 1019.25 1019.75 1020.30 1020.89 1021.47 1021.94 1022.38 1022.79 1023.41 1024.21 1025.03 1025.91 1026.54 1027.03 1027.45 1027.84 1028.21 1028.59 1028.90 1029.30 1029.61
1017.26 1018.56 1020.03 1021.59 1021.73 1020.69 1017.43 1016.97 1016.63 1016.48 1016.04 1016.22 1015.78 1016.19 1016.24 1016.10 1016.18 1016.53 1016.60 1016.89 1017.56 1017.92 1018.46 1019.08 1019.69 1020.38 1021.13 1021.70 1022.18 1022.59 1023.12 1023.63 1024.26 1024.78 1025.22 1026.00 1026.73 1027.31 1027.72 1028.15 1028.50 1028.97 1029.48 1029.82
1017.03 1018.51 1020.64 1021.88 1022.00 1019.34 1016.60 1016.51 1016.45 1016.22 1015.16 1015.10 1015.41 1015.40 1015.96 1016.32 1016.64 1016.55 1016.04 1016.54 1016.96 1017.39 1017.89 1018.71 1019.55 1020.43 1021.14 1021.61 1022.04 1022.66 1023.26 1023.66 1024.20 1024.57 1024.84 1025.38 1026.06 1026.85 1027.51 1027.99 1028.46 1029.00 1029.52 1030.03
1017.92 1018.36 1019.78 1022.41 1021.74 1019.74 1016.39 1015.34 1015.15 1015.36 1014.54 1013.67 1014.10 1015.17 1015.89 1016.53 1016.94 1015.23 1015.57 1016.08 1016.68 1017.19 1018.01 1019.00 1020.00 1020.79 1021.43 1021.85 1022.30 1022.70 1023.02 1023.47 1023.86 1024.14 1024.77 1025.16 1025.66 1026.34 1026.97 1027.62 1028.34 1028.85 1029.43 1030.14
1018.40 1019.12 1019.64 1021.04 1020.63 1018.02 1015.70 1015.39 1015.43 1015.91 1014.67 1013.33 1013.78 1014.40 1015.63 1016.10 1015.13 1015.24 1015.27 1016.01 1016.61 1017.46 1018.49 1019.33 1020.36 1020.97 1021.34 1021.89 1022.34 1022.85 1023.20 1023.24 1023.12 1023.78 1024.47 1025.22 1025.59 1026.12 1026.63 1027.30 1028.02 1028.68 1029.20 1030.01
1017.04 1018.49 1019.19 1020.05 1019.83 1017.48 1015.10 1015.89 1015.19 1014.10 1013.57 1013.49 1013.82 1014.20 1014.95 1014.85 1015.49 1015.64 1015.97 1016.61 1017.35 1017.92 1019.00 1019.88 1020.73 1021.01 1021.08 1021.78 1022.27 1022.60 1022.88 1022.70 1023.20 1023.61 1024.36 1024.94 1025.47 1025.89 1026.50 1027.07 1027.85 1028.56 1029.15 1029.98
1016.89 1015.93 1016.92 1017.11 1015.97 1015.13 1014.87 1014.52 1014.05 1013.80 1013.54 1013.48 1013.82 1014.24 1014.65 1015.13 1015.66 1016.01 1016.41 1017.11 1017.74 1018.35 1018.97 1019.59 1020.08 1020.60 1020.95 1021.48 1021.80 1022.15 1022.10 1022.76 1023.34 1023.79 1024.44 1025.04 1025.43 1025.78 1026.28 1026.91 1027.75 1028.42 1029.23 1029.78
1016.33 1016.01 1016.16 1016.54 1015.32 1015.31 1014.95 1014.55 1014.32 1013.94 1013.86 1014.12 1014.15 1014.11 1014.79 1015.27 1015.67 1016.23 1016.76 1017.39 1017.87 1018.25 1018.81 1019.15 1019.98 1020.26 1020.34 1020.71 1021.08 1021.35 1021.93 1022.32 1022.95 1023.72 1024.32 1024.91 1025.39 1025.83 1026.36 1026.87 1027.42 1027.83 1028.66 1029.34
1015.50 1015.87 1015.99 1015.96 1016.06 1015.80 1015.21 1014.45 1013.98 1013.99 1014.42 1014.57 1014.66 1014.75 1015.10 1015.68 1016.13 1016.33 1016.54 1017.19 1017.41 1017.75 1018.13 1018.94 1019.20 1019.22 1019.03 1019.87 1020.55 1021.34 1021.81 1022.18 1023.01 1023.71 1024.17 1024.65 1025.13 1025.51 1025.92 1026.50 1026.91 1027.35 1027.91 1028.41
1014.82 1014.90 1015.34 1015.26 1014.70 1014.38 1014.50 1014.13 1013.95 1014.65 1014.86 1014.97 1015.14 1015.24 1015.40 1015.58 1015.82 1016.30 1016.42 1016.36 1016.72 1017.31 1017.70 1018.16 1018.38 1018.65 1018.72 1019.36 1020.11 1021.05 1021.32 1021.81 1022.39 1022.95 1023.57 1024.10 1024.73 1025.34 1025.89 1026.45 1026.96 1027.23 1027.75 1028.10
Thickness
5587 5587 5590 5598 5605 5602 5599 5603 5608 5611 5620 5621 5619 5622 5639 5639 5643 5645 5648 5649 5651 5652 5647 5645 5643 5642 5643 5642 5643 5643 5643 5643 5645 5646 5647 5646 5643 5638 5632 5630 5628 5626 5625 5625
5575 5580 5589 5593 5592 5596 5597 5598 5600 5607 5611 5608 5608 5618 5633 5634 5642 5648 5649 5648 5648 5643 5638 5637 5633 5630 5629 5630 5631 5633 5633 5634 5635 5636 5636 5635 5632 5625 5621 5617 5615 5612 5611 5610
5569 5580 5581 5586 5581 5587 5587 5587 5591 5596 5597 5596 5594 5610 5623 5635 5636 5641 5645 5645 5644 5643 5635 5628 5625 5621 5617 5616 5617 5620 5622 5623 5624 5625 5625 5622 5618 5613 5610 5605 5602 5598 5597 5597
5561 5567 5567 5571 5572 5577 5575 5582 5585 5587 5584 5581 5586 5588 5612 5627 5629 5632 5637 5638 5635 5632 5626 5617 5613 5610 5607 5604 5605 5608 5610 5612 5613 5613 5613 5611 5607 5602 5593 5590 5587 5584 5582 5581
5554 5555 5557 5561 5570 5573 5573 5572 5573 5576 5570 5573 5575 5571 5604 5615 5626 5627 5623 5625 5619 5620 5616 5611 5603 5599 5595 5592 5593 5595 5597 5598 5598 5599 5597 5596 5593 5587 5580 5576 5573 5569 5567 5564
5542 5550 5555 5560 5563 5569 5559 5562 5556 5549 5555 5534 5568 5568 5579 5606 5619 5618 5615 5608 5601 5599 5597 5592 5588 5584 5581 5581 5582 5583 5583 5581 5582 5582 5582 5580 5578 5573 5568 5563 5559 5555 5552 5550
5532 5541 5550 5557 5553 5558 5562 5557 5512 5521 5506 5540 5545 5546 5577 5597 5604 5606 5603 5593 5585 5582 5582 5579 5577 5575 5573 5572 5571 5571 5569 5566 5566 5567 5565 5564 5561 5559 5553 5548 5545 5542 5538 5535
5513 5511 5541 5552 5555 5554 5545 5549 5519 5534 5529 5543 5538 5552 5583 5589 5583 5583 5586 5580 5576 5573 5570 5569 5567 5566 5566 5565 5561 5558 5556 5554 5554 5552 5550 5548 5545 5541 5538 5534 5531 5527 5522 5518
5510 5528 5533 5541 5546 5550 5541 5539 5543 5514 5458 5503 5537 5554 5575 5578 5573 5566 5564 5568 5568 5565 5562 5560 5557 5555 5554 5553 5549 5547 5544 5542 5540 5537 5535 5532 5529 5527 5523 5519 5514 5511 5506 5503
5521 5507 5519 5529 5538 5538 5542 5539 5528 5501 5498 5486 5526 5538 5565 5574 5573 5557 5554 5558 5557 5556 5554 5553 5552 5550 5546 5541 5538 5536 5534 5531 5527 5523 5521 5517 5514 5511 5507 5503 5500 5496 5492 5487
5515 5522 5509 5522 5529 5529 5531 5530 5524 5523 5503 5509 5502 5544 5543 5559 5559 5555 5547 5547 5547 5547 5548 5547 5546 5542 5538 5535 5532 5530 5525 5522 5517 5513 5509 5504 5500 5496 5492 5489 5487 5483 5477 5472
5516 5506 5499 5521 5514 5518 5528 5524 5520 5506 5505 5489 5500 5526 5540 5536 5536 5540 5537 5536 5538 5539 5539 5539 5536 5533 5528 5527 5523 5520 5516 5513 5508 5502 5496 5491 5486 5482 5479 5476 5472 5468 5462 5455
5508 5492 5469 5491 5508 5512 5521 5526 5522 5511 5505 5503 5502 5522 5532 5534 5533 5528 5525 5526 5529 5533 5532 5529 5525 5523 5520 5516 5512 5509 5506 5501 5495 5490 5484 5479 5474 5469 5464 5459 5454 5450 5445 5441
5510 5492 5501 5506 5510 5515 5507 5520 5527 5525 5522 5511 5521 5530 5533 5527 5525 5520 5519 5517 5523 5528 5527 5522 5519 5519 5516 5511 5506 5499 5493 5487 5480 5474 5470 5466 5461 5457 5451 5445 5441 5437 5431 5425
5503 5483 5496 5503 5508 5508 5513 5518 5512 5525 5527 5519 5525 5521 5528 5521 5523 5521 5514 5515 5518 5518 5519 5516 5513 5512 5508 5505 5498 5492 5485 5478 5471 5464 5460 5455 5449 5442 5438 5434 5429 5423 5417 5410
5495 5488 5488 5470 5487 5495 5504 5504 5507 5516 5517 5518 5515 5517 5521 5528 5516 5515 5516 5514 5512 5512 5509 5509 5505 5502 5501 5496 5491 5485 5477 5470 5463 5455 5448 5441 5434 5428 5424 5420 5415 5408 5401 5394
5487 5480 5477 5484 5461 5482 5488 5501 5503 5512 5516 5526 5519 5539 5509 5514 5518 5516 5513 5512 5521 5517 5514 5507 5503 5498 5492 5487 5482 5479 5473 5465 5457 5448 5439 5432 5426 5420 5414 5407 5400 5393 5386 5379
5487 5481 5463 5447 5451 5470 5522 5504 5513 5523 5529 5520 5529 5520 5522 5529 5528 5521 5520 5525 5517 5510 5505 5501 5495 5488 5480 5473 5468 5463 5458 5452 5446 5440 5435 5426 5417 5409 5402 5394 5387 5379 5370 5363
5484 5471 5432 5450 5405 5475 5523 5503 5500 5505 5523 5515 5519 5525 5510 5509 5507 5507 5510 5508 5510 5505 5501 5493 5485 5477 5468 5464 5459 5451 5444 5440 5434 5428 5425 5417 5408 5398 5389 5380 5372 5362 5354 5346
5464 5467 5452 5380 5456 5442 5505 5513 5501 5509 5515 5518 5523 5512 5495 5490 5492 5523 5508 5503 5500 5495 5488 5479 5468 5459 5454 5449 5445 5440 5435 5429 5423 5418 5408 5401 5393 5384 5375 5364 5354 5346 5337 5328
5459 5448 5470 5398 5433 5453 5498 5494 5497 5471 5502 5518 5507 5512 5484 5496 5518 5507 5503 5496 5491 5482 5472 5461 5450 5448 5442 5435 5431 5426 5419 5415 5411 5401 5391 5379 5372 5364 5357 5348 5339 5331 5323 5314
5477 5460 5454 5424 5441 5467 5485 5481 5493 5498 5504 5508 5497 5495 5488 5495 5490 5495 5488 5479 5471 5465 5451 5445 5437 5436 5430 5421 5416 5411 5405 5399 5391 5383 5372 5362 5352 5346 5339 5332 5323 5316 5309 5300
5471 5472 5455 5478 5486 5489 5473 5488 5484 5484 5496 5498 5495 5491 5483 5475 5471 5470 5469 5461 5456 5450 5441 5434 5432 5426 5414 5404 5400 5396 5389 5378 5367 5358 5346 5337 5330 5325 5319 5313 5306 5300 5293 5289
5442 5433 5455 5464 5466 5474 5476 5472 5473 5474 5483 5477 5480 5479 5468 5473 5465 5460 5452 5447 5443 5433 5431 5423 5412 5408 5406 5392 5387 5382 5368 5358 5346 5332 5321 5312 5306 5301 5297 5295 5292 5290 5286 5283
5443 5446 5431 5434 5438 5439 5450 5464 5469 5467 5462 5464 5464 5464 5463 5457 5451 5447 5443 5437 5432 5429 5418 5407 5404 5403 5402 5380 5372 5357 5346 5336 5324 5311 5302 5295 5289 5285 5284 5283 5284 5283 5283 5281
5426 5433 5447 5450 5455 5460 5471 5453 5454 5451 5451 5445 5446 5437 5433 5436 5438 5427 5430 5428 5422 5414 5405 5398 5393 5387 5384 5368 5355 5341 5335 5327 5316 5307 5296 5289 5281 5277 5276 5276 5275 5276 5275 5275